Time,TemperatureF,DewpointF,PressureIn,WindDirection,WindDirectionDegrees,WindSpeedMPH,WindSpeedGustMPH,Humidity,HourlyPrecipIn,Conditions,Clouds,dailyrainin,SoftwareType,DateUTC
2013-03-12 00:00:00,65.7,61.1,30.00,SE,136,0.0,1.0,85,0.00,,,0.00,Wunderground v.1.15,2013-03-12 04:00:00,
2013-03-12 00:05:00,65.5,60.9,30.00,SE,135,0.0,1.0,85,0.00,,,0.00,Wunderground v.1.15,2013-03-12 04:05:00,
2013-03-12 00:10:00,65.3,61.0,29.99,SE,135,0.0,1.0,86,0.00,,,0.00,Wunderground v.1.15,2013-03-12 04:10:00,
2013-03-12 00:15:00,65.1,60.8,30.00,SE,134,0.0,1.0,86,0.00,,,0.00,Wunderground v.1.15,2013-03-12 04:15:00,
2013-03-12 00:20:00,64.9,60.9,29.99,SE,134,0.0,1.0,87,0.00,,,0.00,Wunderground v.1.15,2013-03-12 04:20:00,
2013-03-12 00:25:00,64.9,60.9,29.99,SE,132,0.0,1.0,87,0.00,,,0.00,Wunderground v.1.15,2013-03-12 04:25:00,
2013-03-12 00:35:00,64.8,60.8,29.99,SE,132,0.0,1.0,87,0.00,,,0.00,Wunderground v.1.15,2013-03-12 04:35:00,
2013-03-12 00:40:00,64.7,61.1,29.99,SE,132,0.0,1.0,88,0.00,,,0.00,Wunderground v.1.15,2013-03-12 04:40:00,
2013-03-12 00:45:00,64.6,61.0,29.99,SE,132,0.0,1.0,88,0.00,,,0.00,Wunderground v.1.15,2013-03-12 04:45:00,
2013-03-12 00:50:00,64.5,60.9,29.99,SE,132,0.0,1.0,88,0.00,,,0.00,Wunderground v.1.15,2013-03-12 04:50:00,
2013-03-12 00:55:00,64.4,60.8,29.99,SE,132,0.0,1.0,88,0.00,,,0.00,Wunderground v.1.15,2013-03-12 04:55:00,
2013-03-12 01:00:00,64.3,60.7,29.99,SE,132,0.0,1.0,88,0.00,,,0.00,Wunderground v.1.15,2013-03-12 05:00:00,
2013-03-12 01:10:00,64.3,61.0,29.99,SE,130,0.0,1.0,89,0.00,,,0.00,Wunderground v.1.15,2013-03-12 05:10:00,
2013-03-12 01:20:00,64.3,61.0,29.99,SE,130,0.0,1.0,89,0.00,,,0.00,Wunderground v.1.15,2013-03-12 05:20:00,
2013-03-12 01:25:00,64.2,60.9,29.99,SE,130,0.0,1.0,89,0.00,,,0.00,Wunderground v.1.15,2013-03-12 05:25:00,
2013-03-12 01:30:00,64.1,60.8,29.99,SE,130,0.0,1.0,89,0.00,,,0.00,Wunderground v.1.15,2013-03-12 05:30:00,
2013-03-12 01:35:00,64.0,60.7,29.99,SE,130,0.0,1.0,89,0.00,,,0.00,Wunderground v.1.15,2013-03-12 05:35:00,
2013-03-12 01:40:00,63.9,60.6,29.99,SE,130,0.0,1.0,89,0.00,,,0.00,Wunderground v.1.15,2013-03-12 05:40:00,
2013-03-12 01:45:00,63.8,60.5,29.98,SE,130,0.0,1.0,89,0.00,,,0.00,Wunderground v.1.15,2013-03-12 05:45:00,
2013-03-12 01:50:00,63.6,60.6,29.98,SE,130,0.0,1.0,90,0.00,,,0.00,Wunderground v.1.15,2013-03-12 05:50:00,
2013-03-12 01:55:00,63.4,60.4,29.98,SE,130,0.0,1.0,90,0.00,,,0.00,Wunderground v.1.15,2013-03-12 05:55:00,
2013-03-12 02:01:00,63.2,60.2,29.98,SE,130,0.0,0.0,90,0.00,,,0.00,Wunderground v.1.15,2013-03-12 06:01:00,
2013-03-12 02:10:00,63.0,60.3,29.97,SE,126,0.0,0.0,91,0.00,,,0.00,Wunderground v.1.15,2013-03-12 06:10:00,
2013-03-12 02:20:00,63.1,60.7,29.97,ESE,121,0.0,0.0,92,0.00,,,0.00,Wunderground v.1.15,2013-03-12 06:20:00,
2013-03-12 02:25:00,63.2,60.8,29.97,SE,124,0.0,0.0,92,0.00,,,0.00,Wunderground v.1.15,2013-03-12 06:25:00,
2013-03-12 02:30:00,63.2,60.5,29.97,SE,124,0.0,0.0,91,0.00,,,0.00,Wunderground v.1.15,2013-03-12 06:30:00,
2013-03-12 02:35:00,63.2,60.5,29.97,SE,133,0.0,0.0,91,0.00,,,0.00,Wunderground v.1.15,2013-03-12 06:35:00,
2013-03-12 02:40:00,63.2,60.8,29.97,SSE,155,0.0,0.0,92,0.00,,,0.00,Wunderground v.1.15,2013-03-12 06:40:00,
2013-03-12 02:45:00,63.3,60.9,29.96,SSW,200,0.0,1.0,92,0.00,,,0.00,Wunderground v.1.15,2013-03-12 06:45:00,
2013-03-12 02:55:00,63.4,60.7,29.96,ESE,111,0.0,0.0,91,0.00,,,0.00,Wunderground v.1.15,2013-03-12 06:55:00,
2013-03-12 03:00:00,63.5,60.8,29.95,SSE,157,0.0,1.0,91,0.00,,,0.00,Wunderground v.1.15,2013-03-12 07:00:00,
2013-03-12 03:10:00,63.5,60.8,29.97,South,188,0.0,1.0,91,0.00,,,0.00,Wunderground v.1.15,2013-03-12 07:10:00,
2013-03-12 03:15:00,63.5,60.8,29.96,ESE,121,0.0,1.0,91,0.00,,,0.00,Wunderground v.1.15,2013-03-12 07:15:00,
2013-03-12 03:20:00,63.6,60.9,29.96,South,178,0.0,1.0,91,0.00,,,0.00,Wunderground v.1.15,2013-03-12 07:20:00,
2013-03-12 03:30:00,63.6,60.9,29.95,South,185,0.0,1.0,91,0.00,,,0.00,Wunderground v.1.15,2013-03-12 07:30:00,
2013-03-12 03:35:00,63.6,60.9,29.95,South,184,0.0,1.0,91,0.00,,,0.00,Wunderground v.1.15,2013-03-12 07:35:00,
2013-03-12 03:45:00,63.4,60.7,29.93,ENE,69,0.0,1.0,91,0.00,,,0.00,Wunderground v.1.15,2013-03-12 07:45:00,
2013-03-12 03:50:00,63.3,60.6,29.94,ENE,70,0.0,1.0,91,0.00,,,0.00,Wunderground v.1.15,2013-03-12 07:50:00,
2013-03-12 04:00:00,63.1,60.7,29.93,NE,53,0.0,0.0,92,0.00,,,0.00,Wunderground v.1.15,2013-03-12 08:00:00,
2013-03-12 04:10:00,63.1,60.7,29.92,ENE,70,0.0,0.0,92,0.00,,,0.00,Wunderground v.1.15,2013-03-12 08:10:00,
2013-03-12 04:15:00,63.1,60.7,29.92,ESE,111,0.0,0.0,92,0.00,,,0.00,Wunderground v.1.15,2013-03-12 08:15:00,
2013-03-12 04:20:00,63.2,60.8,29.93,South,171,0.0,0.0,92,0.00,,,0.00,Wunderground v.1.15,2013-03-12 08:20:00,
2013-03-12 04:25:00,63.3,60.9,29.93,South,173,0.0,0.0,92,0.00,,,0.00,Wunderground v.1.15,2013-03-12 08:25:00,
2013-03-12 04:35:00,63.4,61.0,29.92,SSE,149,0.0,0.0,92,0.00,,,0.00,Wunderground v.1.15,2013-03-12 08:35:00,
2013-03-12 04:40:00,63.5,60.8,29.92,SSE,148,0.0,0.0,91,0.00,,,0.00,Wunderground v.1.15,2013-03-12 08:40:00,
2013-03-12 04:45:00,63.5,61.1,29.93,SSE,148,0.0,0.0,92,0.00,,,0.00,Wunderground v.1.15,2013-03-12 08:45:00,
2013-03-12 04:50:00,63.5,60.8,29.93,SSE,148,0.0,0.0,91,0.00,,,0.00,Wunderground v.1.15,2013-03-12 08:50:00,
2013-03-12 04:55:00,63.4,60.7,29.93,SSE,148,0.0,0.0,91,0.00,,,0.00,Wunderground v.1.15,2013-03-12 08:55:00,
2013-03-12 05:00:00,63.3,60.9,29.93,SSE,148,0.0,0.0,92,0.00,,,0.00,Wunderground v.1.15,2013-03-12 09:00:00,
2013-03-12 05:10:00,63.2,60.8,29.93,SSE,148,0.0,0.0,92,0.00,,,0.00,Wunderground v.1.15,2013-03-12 09:10:00,
2013-03-12 05:15:00,63.1,60.7,29.93,SSE,148,0.0,0.0,92,0.00,,,0.00,Wunderground v.1.15,2013-03-12 09:15:00,
2013-03-12 05:20:00,63.0,60.6,29.93,SSE,148,0.0,0.0,92,0.00,,,0.00,Wunderground v.1.15,2013-03-12 09:20:00,
2013-03-12 05:25:00,62.9,60.5,29.93,SSE,148,0.0,0.0,92,0.00,,,0.00,Wunderground v.1.15,2013-03-12 09:25:00,
2013-03-12 05:30:00,62.8,60.4,29.94,SSE,148,0.0,0.0,92,0.00,,,0.00,Wunderground v.1.15,2013-03-12 09:30:00,
2013-03-12 05:35:00,62.8,60.7,29.94,SSE,148,0.0,0.0,93,0.00,,,0.00,Wunderground v.1.15,2013-03-12 09:35:00,
2013-03-12 05:45:00,63.0,60.9,29.94,SSE,148,0.0,0.0,93,0.00,,,0.00,Wunderground v.1.15,2013-03-12 09:45:00,
2013-03-12 05:50:00,63.0,60.6,29.95,SSE,148,0.0,0.0,92,0.00,,,0.00,Wunderground v.1.15,2013-03-12 09:50:00,
2013-03-12 05:55:00,62.9,60.5,29.96,SSE,148,0.0,0.0,92,0.00,,,0.00,Wunderground v.1.15,2013-03-12 09:55:00,
2013-03-12 06:00:00,62.9,60.8,29.95,SSE,148,0.0,0.0,93,0.00,,,0.00,Wunderground v.1.15,2013-03-12 10:00:00,
2013-03-12 06:10:00,62.8,60.7,29.96,SSE,148,0.0,0.0,93,0.00,,,0.00,Wunderground v.1.15,2013-03-12 10:10:00,
2013-03-12 06:15:00,62.7,60.6,29.96,SSE,148,0.0,0.0,93,0.00,,,0.00,Wunderground v.1.15,2013-03-12 10:15:00,
2013-03-12 06:25:00,62.5,60.4,29.95,SSE,148,0.0,0.0,93,0.00,,,0.00,Wunderground v.1.15,2013-03-12 10:25:00,
2013-03-12 06:35:00,62.2,60.5,29.95,SSE,148,0.0,0.0,94,0.00,,,0.00,Wunderground v.1.15,2013-03-12 10:35:00,
2013-03-12 06:45:00,62.0,60.3,29.95,SSE,148,0.0,0.0,94,0.00,,,0.00,Wunderground v.1.15,2013-03-12 10:45:00,
2013-03-12 06:50:00,62.0,60.3,29.94,SSE,149,0.0,0.0,94,0.00,,,0.00,Wunderground v.1.15,2013-03-12 10:50:00,
2013-03-12 06:55:00,61.9,60.2,29.94,SSE,148,0.0,0.0,94,0.00,,,0.00,Wunderground v.1.15,2013-03-12 10:55:00,
2013-03-12 07:01:00,61.8,60.1,29.93,SSE,148,0.0,0.0,94,0.00,,,0.00,Wunderground v.1.15,2013-03-12 11:01:00,
2013-03-12 07:10:00,61.8,60.4,29.94,South,184,0.0,0.0,95,0.00,,,0.00,Wunderground v.1.15,2013-03-12 11:10:00,
2013-03-12 07:15:00,62.0,60.6,29.93,South,183,0.0,0.0,95,0.00,,,0.00,Wunderground v.1.15,2013-03-12 11:15:00,
2013-03-12 07:20:00,62.0,60.6,29.92,SE,138,0.0,0.0,95,0.00,,,0.00,Wunderground v.1.15,2013-03-12 11:20:00,
2013-03-12 07:25:00,62.1,60.7,29.93,NW,313,0.0,0.0,95,0.00,,,0.00,Wunderground v.1.15,2013-03-12 11:25:00,
2013-03-12 07:30:00,62.3,60.8,29.93,South,180,0.0,0.0,95,0.00,,,0.00,Wunderground v.1.15,2013-03-12 11:30:00,
2013-03-12 07:40:00,62.8,61.3,29.95,SW,215,0.0,0.0,95,0.00,,,0.00,Wunderground v.1.15,2013-03-12 11:40:00,
2013-03-12 07:45:00,63.2,62.0,29.94,SW,218,0.0,0.0,96,0.00,,,0.00,Wunderground v.1.15,2013-03-12 11:45:00,
2013-03-12 07:50:00,63.6,62.4,29.95,SSW,213,0.0,0.0,96,0.00,,,0.00,Wunderground v.1.15,2013-03-12 11:50:00,
2013-03-12 08:00:00,64.3,62.8,29.96,SSW,201,0.0,0.0,95,0.00,,,0.00,Wunderground v.1.15,2013-03-12 12:00:00,
2013-03-12 08:10:00,65.2,63.7,29.96,South,179,1.0,1.0,95,0.00,,,0.00,Wunderground v.1.15,2013-03-12 12:10:00,
2013-03-12 08:15:00,65.5,63.7,29.96,SSW,213,1.0,1.0,94,0.00,,,0.00,Wunderground v.1.15,2013-03-12 12:15:00,
2013-03-12 08:25:00,65.9,64.1,29.96,South,189,0.0,0.0,94,0.00,,,0.00,Wunderground v.1.15,2013-03-12 12:25:00,
2013-03-12 08:30:00,66.3,64.5,29.98,South,183,0.0,1.0,94,0.00,,,0.00,Wunderground v.1.15,2013-03-12 12:30:00,
2013-03-12 08:35:00,66.6,64.5,29.97,South,190,1.0,1.0,93,0.00,,,0.00,Wunderground v.1.15,2013-03-12 12:35:00,
2013-03-12 08:40:00,66.8,64.7,29.98,South,184,1.0,1.0,93,0.00,,,0.00,Wunderground v.1.15,2013-03-12 12:40:00,
2013-03-12 08:50:00,67.4,65.3,29.99,South,182,0.0,0.0,93,0.00,,,0.00,Wunderground v.1.15,2013-03-12 12:50:00,
2013-03-12 08:55:00,67.7,65.3,29.98,SW,217,1.0,1.0,92,0.00,,,0.00,Wunderground v.1.15,2013-03-12 12:55:00,
2013-03-12 09:00:00,67.9,65.5,29.98,South,183,1.0,1.0,92,0.00,,,0.00,Wunderground v.1.15,2013-03-12 13:00:00,
2013-03-12 09:10:00,68.2,65.8,29.98,South,181,1.0,1.0,92,0.00,,,0.00,Wunderground v.1.15,2013-03-12 13:10:00,
2013-03-12 09:15:00,68.4,65.7,29.98,South,188,2.0,2.0,91,0.00,,,0.00,Wunderground v.1.15,2013-03-12 13:15:00,
2013-03-12 09:20:00,68.6,65.9,29.99,SW,225,2.0,6.0,91,0.00,,,0.00,Wunderground v.1.15,2013-03-12 13:20:00,
2013-03-12 09:25:00,68.9,66.2,29.99,WSW,249,2.0,6.0,91,0.00,,,0.00,Wunderground v.1.15,2013-03-12 13:25:00,
2013-03-12 09:35:00,69.4,66.3,29.99,South,182,2.0,2.0,90,0.00,,,0.00,Wunderground v.1.15,2013-03-12 13:35:00,
2013-03-12 09:45:00,70.5,67.1,29.99,WNW,293,2.0,2.0,89,0.00,,,0.00,Wunderground v.1.15,2013-03-12 13:45:00,
2013-03-12 09:50:00,71.0,67.3,29.98,South,180,3.0,9.0,88,0.00,,,0.00,Wunderground v.1.15,2013-03-12 13:50:00,
2013-03-12 09:55:00,71.7,68.0,29.98,WNW,292,3.0,9.0,88,0.00,,,0.00,Wunderground v.1.15,2013-03-12 13:55:00,
2013-03-12 10:00:00,72.5,68.1,29.99,SSW,200,3.0,3.0,86,0.00,,,0.00,Wunderground v.1.15,2013-03-12 14:00:00,
2013-03-12 10:10:00,73.2,68.1,29.98,NW,307,4.0,4.0,84,0.00,,,0.00,Wunderground v.1.15,2013-03-12 14:10:00,
2013-03-12 10:15:00,73.7,68.2,29.99,NW,306,3.0,11.0,83,0.00,,,0.00,Wunderground v.1.15,2013-03-12 14:15:00,
2013-03-12 10:25:00,74.7,68.5,29.99,SSE,156,3.0,8.0,81,0.00,,,0.00,Wunderground v.1.15,2013-03-12 14:25:00,
2013-03-12 10:30:00,74.8,68.2,29.99,SSW,200,4.0,4.0,80,0.00,,,0.00,Wunderground v.1.15,2013-03-12 14:30:00,
2013-03-12 10:40:00,75.2,68.2,30.00,SE,134,3.0,11.0,79,0.00,,,0.00,Wunderground v.1.15,2013-03-12 14:40:00,
2013-03-12 10:50:00,75.8,68.4,30.00,West,275,4.0,11.0,78,0.00,,,0.00,Wunderground v.1.15,2013-03-12 14:50:00,
2013-03-12 10:55:00,76.3,68.2,30.00,ESE,110,4.0,11.0,76,0.00,,,0.00,Wunderground v.1.15,2013-03-12 14:55:00,
2013-03-12 11:00:00,76.4,67.9,30.00,West,274,4.0,4.0,75,0.00,,,0.00,Wunderground v.1.15,2013-03-12 15:00:00,
2013-03-12 11:10:00,76.2,67.3,30.00,SW,214,5.0,9.0,74,0.00,,,0.00,Wunderground v.1.15,2013-03-12 15:10:00,
2013-03-12 11:15:00,76.2,66.5,30.01,SSW,208,5.0,9.0,72,0.00,,,0.00,Wunderground v.1.15,2013-03-12 15:15:00,
2013-03-12 11:20:00,76.3,66.6,30.01,WSW,248,5.0,9.0,72,0.00,,,0.00,Wunderground v.1.15,2013-03-12 15:20:00,
2013-03-12 11:30:00,76.4,66.7,30.02,South,185,5.0,5.0,72,0.00,,,0.00,Wunderground v.1.15,2013-03-12 15:30:00,
2013-03-12 11:35:00,76.2,66.9,30.02,SE,136,5.0,9.0,73,0.00,,,0.00,Wunderground v.1.15,2013-03-12 15:35:00,
2013-03-12 11:40:00,76.2,66.9,30.02,WNW,302,4.0,4.0,73,0.00,,,0.00,Wunderground v.1.15,2013-03-12 15:40:00,
2013-03-12 11:50:00,77.1,67.4,30.02,West,263,3.0,3.0,72,0.00,,,0.00,Wunderground v.1.15,2013-03-12 15:50:00,
2013-03-12 11:55:00,77.3,67.2,30.02,WNW,288,4.0,4.0,71,0.00,,,0.00,Wunderground v.1.15,2013-03-12 15:55:00,
2013-03-12 12:00:00,77.1,67.0,30.02,East,80,5.0,10.0,71,0.00,,,0.00,Wunderground v.1.15,2013-03-12 16:00:00,
2013-03-12 12:10:00,77.4,67.3,30.02,WSW,249,3.0,3.0,71,0.00,,,0.00,Wunderground v.1.15,2013-03-12 16:10:00,
2013-03-12 12:15:00,77.4,67.3,30.02,West,273,3.0,9.0,71,0.00,,,0.00,Wunderground v.1.15,2013-03-12 16:15:00,
2013-03-12 12:25:00,77.6,67.4,30.01,North,360,4.0,10.0,71,0.00,,,0.00,Wunderground v.1.15,2013-03-12 16:25:00,
2013-03-12 12:30:00,77.7,67.1,30.01,ESE,115,4.0,10.0,70,0.00,,,0.00,Wunderground v.1.15,2013-03-12 16:30:00,
2013-03-12 12:35:00,77.8,67.6,30.01,South,183,5.0,10.0,71,0.00,,,0.00,Wunderground v.1.15,2013-03-12 16:35:00,
2013-03-12 12:40:00,77.9,67.7,30.00,NE,40,5.0,5.0,71,0.00,,,0.00,Wunderground v.1.15,2013-03-12 16:40:00,
2013-03-12 12:45:00,77.8,67.6,30.01,WSW,249,5.0,6.0,71,0.00,,,0.00,Wunderground v.1.15,2013-03-12 16:45:00,
2013-03-12 12:50:00,77.8,68.0,30.01,WNW,298,4.0,4.0,72,0.00,,,0.00,Wunderground v.1.15,2013-03-12 16:50:00,
2013-03-12 12:55:00,77.5,67.8,30.01,SE,125,4.0,7.0,72,0.00,,,0.00,Wunderground v.1.15,2013-03-12 16:55:00,
2013-03-12 13:00:00,77.0,67.7,30.01,NNW,335,5.0,5.0,73,0.00,,,0.00,Wunderground v.1.15,2013-03-12 17:00:00,
2013-03-12 13:10:00,76.4,67.9,30.01,SSE,161,5.0,5.0,75,0.00,,,0.00,Wunderground v.1.15,2013-03-12 17:10:00,
2013-03-12 13:15:00,76.3,68.2,30.01,SSE,162,5.0,10.0,76,0.00,,,0.00,Wunderground v.1.15,2013-03-12 17:15:00,
2013-03-12 13:20:00,76.2,68.5,30.01,NNW,327,4.0,9.0,77,0.00,,,0.00,Wunderground v.1.15,2013-03-12 17:20:00,
2013-03-12 13:30:00,76.7,68.6,30.00,West,261,3.0,9.0,76,0.00,,,0.00,Wunderground v.1.15,2013-03-12 17:30:00,
2013-03-12 13:35:00,76.7,68.6,30.00,West,261,3.0,9.0,76,0.00,,,0.00,Wunderground v.1.15,2013-03-12 17:35:00,
2013-03-12 13:40:00,76.7,68.6,30.00,West,262,4.0,9.0,76,0.00,,,0.00,Wunderground v.1.15,2013-03-12 17:40:00,
2013-03-12 13:45:00,76.6,68.8,29.99,West,269,5.0,9.0,77,0.00,,,0.00,Wunderground v.1.15,2013-03-12 17:45:00,
2013-03-12 13:50:00,76.7,68.6,29.99,West,259,4.0,9.0,76,0.00,,,0.00,Wunderground v.1.15,2013-03-12 17:50:00,
2013-03-12 14:00:00,77.1,68.2,29.98,SSE,163,5.0,5.0,74,0.00,,,0.00,Wunderground v.1.15,2013-03-12 18:00:00,
2013-03-12 14:10:00,77.3,67.6,29.98,ENE,67,6.0,11.0,72,0.00,,,0.00,Wunderground v.1.15,2013-03-12 18:10:00,
2013-03-12 14:15:00,77.6,67.9,29.97,ENE,63,5.0,11.0,72,0.00,,,0.00,Wunderground v.1.15,2013-03-12 18:15:00,
2013-03-12 14:20:00,77.7,68.0,29.97,West,272,5.0,11.0,72,0.00,,,0.00,Wunderground v.1.15,2013-03-12 18:20:00,
2013-03-12 14:25:00,77.3,67.2,29.97,NE,35,6.0,11.0,71,0.00,,,0.00,Wunderground v.1.15,2013-03-12 18:25:00,
2013-03-12 14:35:00,76.4,67.1,29.97,WNW,290,8.0,8.0,73,0.00,,,0.00,Wunderground v.1.15,2013-03-12 18:35:00,
2013-03-12 14:40:00,76.2,66.9,29.96,SSE,153,8.0,8.0,73,0.00,,,0.00,Wunderground v.1.15,2013-03-12 18:40:00,
2013-03-12 14:45:00,76.1,67.2,29.96,SE,139,7.0,9.0,74,0.00,,,0.00,Wunderground v.1.15,2013-03-12 18:45:00,
2013-03-12 14:50:00,76.0,67.5,29.96,SW,221,6.0,6.0,75,0.00,,,0.00,Wunderground v.1.15,2013-03-12 18:50:00,
2013-03-12 14:55:00,76.1,67.2,29.96,NW,313,6.0,10.0,74,0.00,,,0.00,Wunderground v.1.15,2013-03-12 18:55:00,
2013-03-12 15:00:00,76.2,67.7,29.97,SSW,211,6.0,6.0,75,0.00,,,0.00,Wunderground v.1.15,2013-03-12 19:00:00,
2013-03-12 15:10:00,76.2,67.7,29.97,SE,128,4.0,11.0,75,0.00,,,0.00,Wunderground v.1.15,2013-03-12 19:10:00,
2013-03-12 15:15:00,76.4,66.7,29.96,SE,126,5.0,11.0,72,0.00,,,0.00,Wunderground v.1.15,2013-03-12 19:15:00,
2013-03-12 15:20:00,76.5,67.2,29.96,SE,132,6.0,6.0,73,0.00,,,0.00,Wunderground v.1.15,2013-03-12 19:20:00,
2013-03-12 15:25:00,76.6,66.5,29.96,SW,222,6.0,11.0,71,0.00,,,0.00,Wunderground v.1.15,2013-03-12 19:25:00,
2013-03-12 15:30:00,76.9,66.8,29.96,SSW,195,6.0,6.0,71,0.00,,,0.00,Wunderground v.1.15,2013-03-12 19:30:00,
2013-03-12 15:35:00,77.5,67.4,29.95,West,277,5.0,11.0,71,0.00,,,0.00,Wunderground v.1.15,2013-03-12 19:35:00,
2013-03-12 15:45:00,77.9,63.8,29.95,West,276,6.0,6.0,62,0.00,,,0.00,Wunderground v.1.15,2013-03-12 19:45:00,
2013-03-12 15:50:00,77.4,63.4,29.95,WSW,245,6.0,6.0,62,0.00,,,0.00,Wunderground v.1.15,2013-03-12 19:50:00,
2013-03-12 15:55:00,77.4,63.8,29.96,South,183,6.0,11.0,63,0.00,,,0.00,Wunderground v.1.15,2013-03-12 19:55:00,
2013-03-12 16:00:00,77.4,62.4,29.95,SSE,151,5.0,8.0,60,0.00,,,0.00,Wunderground v.1.15,2013-03-12 20:00:00,
2013-03-12 16:10:00,77.8,63.3,29.95,SSW,200,4.0,4.0,61,0.00,,,0.00,Wunderground v.1.15,2013-03-12 20:10:00,
2013-03-12 16:20:00,77.8,64.2,29.95,SSW,207,4.0,4.0,63,0.00,,,0.00,Wunderground v.1.15,2013-03-12 20:20:00,
2013-03-12 16:25:00,77.6,63.1,29.94,WSW,253,5.0,5.0,61,0.00,,,0.00,Wunderground v.1.15,2013-03-12 20:25:00,
2013-03-12 16:30:00,77.3,63.7,29.94,West,280,4.0,8.0,63,0.00,,,0.00,Wunderground v.1.15,2013-03-12 20:30:00,
2013-03-12 16:35:00,77.1,64.9,29.95,NNE,26,4.0,8.0,66,0.00,,,0.00,Wunderground v.1.15,2013-03-12 20:35:00,
2013-03-12 16:40:00,77.3,64.6,29.94,West,273,3.0,8.0,65,0.00,,,0.00,Wunderground v.1.15,2013-03-12 20:40:00,
2013-03-12 16:50:00,77.2,65.0,29.94,SSW,209,3.0,3.0,66,0.00,,,0.00,Wunderground v.1.15,2013-03-12 20:50:00,
2013-03-12 16:55:00,77.1,65.3,29.95,SSE,165,4.0,5.0,67,0.00,,,0.00,Wunderground v.1.15,2013-03-12 20:55:00,
2013-03-12 17:00:00,77.3,65.9,29.95,NW,307,3.0,11.0,68,0.00,,,0.00,Wunderground v.1.15,2013-03-12 21:00:00,
2013-03-12 17:10:00,76.9,66.0,29.95,WNW,286,4.0,4.0,69,0.00,,,0.00,Wunderground v.1.15,2013-03-12 21:10:00,
2013-03-12 17:15:00,76.6,66.1,29.94,WNW,299,2.0,4.0,70,0.00,,,0.00,Wunderground v.1.15,2013-03-12 21:15:00,
2013-03-12 17:25:00,75.6,66.7,29.95,WNW,292,4.0,11.0,74,0.00,,,0.00,Wunderground v.1.15,2013-03-12 21:25:00,
2013-03-12 17:30:00,74.3,67.0,29.95,WNW,294,6.0,12.0,78,0.00,,,0.00,Wunderground v.1.15,2013-03-12 21:30:00,
2013-03-12 17:35:00,73.4,66.9,29.95,WNW,290,9.0,12.0,80,0.00,,,0.00,Wunderground v.1.15,2013-03-12 21:35:00,
2013-03-12 17:45:00,72.4,66.6,29.96,WNW,303,10.0,13.0,82,0.00,,,0.00,Wunderground v.1.15,2013-03-12 21:45:00,
2013-03-12 17:50:00,72.0,66.2,29.95,WNW,300,9.0,9.0,82,0.00,,,0.00,Wunderground v.1.15,2013-03-12 21:50:00,
2013-03-12 18:00:00,70.8,65.4,29.96,WNW,288,10.0,18.0,83,0.00,,,0.00,Wunderground v.1.15,2013-03-12 22:00:00,
2013-03-12 18:10:00,70.6,65.5,29.95,WNW,296,10.0,10.0,84,0.00,,,0.00,Wunderground v.1.15,2013-03-12 22:10:00,
2013-03-12 18:15:00,70.7,65.3,29.95,WNW,292,9.0,18.0,83,0.00,,,0.00,Wunderground v.1.15,2013-03-12 22:15:00,
2013-03-12 18:20:00,70.6,65.2,29.96,WNW,302,8.0,8.0,83,0.00,,,0.00,Wunderground v.1.15,2013-03-12 22:20:00,
2013-03-12 18:25:00,69.9,64.5,29.95,NW,321,8.0,11.0,83,0.00,,,0.00,Wunderground v.1.15,2013-03-12 22:25:00,
2013-03-12 18:35:00,68.3,63.6,29.96,WNW,302,7.0,18.0,85,0.00,,,0.00,Wunderground v.1.15,2013-03-12 22:35:00,
2013-03-12 18:40:00,67.9,63.6,29.96,WNW,295,8.0,8.0,86,0.00,,,0.00,Wunderground v.1.15,2013-03-12 22:40:00,
2013-03-12 18:45:00,68.0,63.7,29.97,WNW,288,5.0,18.0,86,0.00,,,0.00,Wunderground v.1.15,2013-03-12 22:45:00,
2013-03-12 18:50:00,67.6,63.3,29.97,NW,309,5.0,5.0,86,0.00,,,0.00,Wunderground v.1.15,2013-03-12 22:50:00,
2013-03-12 18:55:00,67.2,63.2,29.97,NW,304,6.0,6.0,87,0.00,,,0.00,Wunderground v.1.15,2013-03-12 22:55:00,
2013-03-12 19:00:00,66.9,63.2,29.98,NW,306,4.0,8.0,88,0.00,,,0.00,Wunderground v.1.15,2013-03-12 23:00:00,
2013-03-12 19:10:00,66.2,63.5,29.98,NW,310,5.0,8.0,91,0.00,,,0.00,Wunderground v.1.15,2013-03-12 23:10:00,
2013-03-12 19:15:00,65.7,63.0,29.97,NW,318,4.0,8.0,91,0.00,,,0.00,Wunderground v.1.15,2013-03-12 23:15:00,
2013-03-12 19:20:00,65.7,63.3,29.98,NW,314,4.0,4.0,92,0.00,,,0.00,Wunderground v.1.15,2013-03-12 23:20:00,
2013-03-12 19:25:00,65.8,63.4,29.98,NW,313,2.0,8.0,92,0.00,,,0.00,Wunderground v.1.15,2013-03-12 23:25:00,
2013-03-12 19:30:00,65.9,63.2,29.99,NW,312,1.0,1.0,91,0.00,,,0.00,Wunderground v.1.15,2013-03-12 23:30:00,
2013-03-12 19:35:00,66.0,63.3,29.98,NW,315,1.0,8.0,91,0.00,,,0.00,Wunderground v.1.15,2013-03-12 23:35:00,
2013-03-12 19:45:00,66.2,62.9,29.99,NW,311,2.0,8.0,89,0.00,,,0.00,Wunderground v.1.15,2013-03-12 23:45:00,
2013-03-12 19:50:00,66.1,62.8,29.99,NW,310,3.0,8.0,89,0.00,,,0.00,Wunderground v.1.15,2013-03-12 23:50:00,
2013-03-12 19:55:00,65.9,62.6,29.99,NW,317,4.0,8.0,89,0.00,,,0.00,Wunderground v.1.15,2013-03-12 23:55:00,
2013-03-12 20:00:00,65.8,62.5,30.00,NW,317,3.0,4.0,89,0.00,,,0.00,Wunderground v.1.15,2013-03-13 00:00:00,
2013-03-12 20:10:00,66.0,62.7,30.00,WNW,288,3.0,4.0,89,0.00,,,0.00,Wunderground v.1.15,2013-03-13 00:10:00,
2013-03-12 20:20:00,65.8,62.5,30.00,WNW,291,4.0,5.0,89,0.00,,,0.00,Wunderground v.1.15,2013-03-13 00:20:00,
2013-03-12 20:25:00,65.8,62.5,30.01,WNW,291,3.0,5.0,89,0.00,,,0.00,Wunderground v.1.15,2013-03-13 00:25:00,
2013-03-12 20:30:00,65.8,62.5,30.00,WNW,291,1.0,1.0,89,0.00,,,0.00,Wunderground v.1.15,2013-03-13 00:30:00,
2013-03-12 20:35:00,65.8,62.1,30.00,WNW,291,1.0,4.0,88,0.00,,,0.00,Wunderground v.1.15,2013-03-13 00:35:00,
2013-03-12 20:40:00,65.9,62.2,30.00,WNW,291,1.0,1.0,88,0.00,,,0.00,Wunderground v.1.15,2013-03-13 00:40:00,
2013-03-12 20:50:00,66.1,62.1,30.00,WNW,291,0.0,4.0,87,0.00,,,0.00,Wunderground v.1.15,2013-03-13 00:50:00,
2013-03-12 20:55:00,66.1,62.1,30.01,WNW,290,2.0,4.0,87,0.00,,,0.00,Wunderground v.1.15,2013-03-13 00:55:00,
2013-03-12 21:00:00,66.1,62.1,30.01,WNW,290,3.0,6.0,87,0.00,,,0.00,Wunderground v.1.15,2013-03-13 01:00:00,
2013-03-12 21:10:00,66.2,61.6,30.01,WNW,291,4.0,4.0,85,0.00,,,0.00,Wunderground v.1.15,2013-03-13 01:10:00,
2013-03-12 21:15:00,66.1,61.5,30.01,WNW,291,3.0,6.0,85,0.00,,,0.00,Wunderground v.1.15,2013-03-13 01:15:00,
2013-03-12 21:25:00,66.0,61.4,30.02,WNW,292,4.0,6.0,85,0.00,,,0.00,Wunderground v.1.15,2013-03-13 01:25:00,
2013-03-12 21:30:00,66.0,61.4,30.02,WNW,291,4.0,6.0,85,0.00,,,0.00,Wunderground v.1.15,2013-03-13 01:30:00,
2013-03-12 21:35:00,66.1,61.5,30.02,WNW,292,3.0,6.0,85,0.00,,,0.00,Wunderground v.1.15,2013-03-13 01:35:00,
2013-03-12 21:40:00,66.0,61.0,30.02,WNW,291,4.0,6.0,84,0.00,,,0.00,Wunderground v.1.15,2013-03-13 01:40:00,
2013-03-12 21:45:00,66.0,61.0,30.02,WNW,286,5.0,6.0,84,0.00,,,0.00,Wunderground v.1.15,2013-03-13 01:45:00,
2013-03-12 21:50:00,65.9,60.9,30.02,WNW,295,5.0,8.0,84,0.00,,,0.00,Wunderground v.1.15,2013-03-13 01:50:00,
2013-03-12 22:00:00,65.8,60.8,30.03,WNW,294,4.0,4.0,84,0.00,,,0.00,Wunderground v.1.15,2013-03-13 02:00:00,
2013-03-12 22:10:00,65.8,60.8,30.02,WNW,292,2.0,6.0,84,0.00,,,0.00,Wunderground v.1.15,2013-03-13 02:10:00,
2013-03-12 22:15:00,65.7,61.1,30.03,WNW,294,3.0,6.0,85,0.00,,,0.00,Wunderground v.1.15,2013-03-13 02:15:00,
2013-03-12 22:20:00,65.6,61.0,30.03,WNW,291,5.0,5.0,85,0.00,,,0.00,Wunderground v.1.15,2013-03-13 02:20:00,
2013-03-12 22:30:00,65.3,60.3,30.03,WNW,286,6.0,6.0,84,0.00,,,0.00,Wunderground v.1.15,2013-03-13 02:30:00,
2013-03-12 22:35:00,65.1,60.1,30.03,WNW,294,5.0,6.0,84,0.00,,,0.00,Wunderground v.1.15,2013-03-13 02:35:00,
2013-03-12 22:40:00,64.8,59.9,30.03,WNW,296,2.0,6.0,84,0.00,,,0.00,Wunderground v.1.15,2013-03-13 02:40:00,
2013-03-12 22:50:00,64.3,59.4,30.03,WNW,295,4.0,4.0,84,0.00,,,0.00,Wunderground v.1.15,2013-03-13 02:50:00,
2013-03-12 22:55:00,64.1,59.2,30.03,WNW,286,4.0,6.0,84,0.00,,,0.00,Wunderground v.1.15,2013-03-13 02:55:00,
2013-03-12 23:00:00,63.8,59.2,30.03,WNW,294,4.0,4.0,85,0.00,,,0.00,Wunderground v.1.15,2013-03-13 03:00:00,
2013-03-12 23:10:00,63.3,59.0,30.04,NW,305,2.0,2.0,86,0.00,,,0.00,Wunderground v.1.15,2013-03-13 03:10:00,
2013-03-12 23:15:00,63.1,59.2,30.04,NW,308,4.0,4.0,87,0.00,,,0.00,Wunderground v.1.15,2013-03-13 03:15:00,
2013-03-12 23:20:00,62.7,58.8,30.04,NW,309,6.0,10.0,87,0.00,,,0.00,Wunderground v.1.15,2013-03-13 03:20:00,
2013-03-12 23:30:00,62.2,58.0,30.04,NW,312,8.0,8.0,86,0.00,,,0.00,Wunderground v.1.15,2013-03-13 03:30:00,
2013-03-12 23:35:00,62.0,58.1,30.03,NW,317,8.0,8.0,87,0.00,,,0.00,Wunderground v.1.15,2013-03-13 03:35:00,
2013-03-12 23:40:00,61.8,57.9,30.04,NW,320,8.0,8.0,87,0.00,,,0.00,Wunderground v.1.15,2013-03-13 03:40:00,
2013-03-12 23:45:00,61.7,57.8,30.04,NW,311,8.0,8.0,87,0.00,,,0.00,Wunderground v.1.15,2013-03-13 03:45:00,
2013-03-12 23:50:00,61.5,57.6,30.04,NW,311,6.0,12.0,87,0.00,,,0.00,Wunderground v.1.15,2013-03-13 03:50:00,
2013-03-12 23:55:00,61.2,57.3,30.04,NW,319,5.0,12.0,87,0.00,,,0.00,Wunderground v.1.15,2013-03-13 03:55:00,